SCP
-0 -0 -0 0 -0 -0 -0 -0 0 -0 0 -0 0 0 0 -0 0 -0 0 0 0 0 0 0 0 0 0 0 -0 -0 0 -0 -0 0 0 -0 -0 0 -0 -0 -0 -0 -0 -0 -0 -0 0 0 0
-0 -0 0 0 -0 -0 -0 0 -0 -0 -0 0 -0 0 0 -0 0 0 0 0 0 -0 0 0 0 -0 -0 -0 -0 -0 -0 -0 -0 -0 -0 -0 -0 -0 -0 -0 -0 -0 -0 -0 -0 -0 -0 0 0
-0 -0 0 -0 0 -0 -0 -0 -0 -0 -0 0 0 0 -0 0 -0 -0 -0 -0 -0 -0 -0 -0 -0 -0 -0 -0 -0 -0 -0 -0 -0 -0 -0 -0 -0 -0 -0 -0 -0 -0 -0 -0 -0 -0 -0 -0 0
0 0 0 0 0 0 -0 -0 -0 -0 0 0 -0 -0 -0 -0 -0 -0 -0 -0 -0 -0 -0 -0 -0 -0 -0 -0 -0 -0 -0 -0 -0 -0 -0 -0 -0 -0 -0 -0 -0 -0 -0 -0 -0 -0 -0 -0 0
0 0 0 0 0 0 -0 0 -0 0 -0 -0 0 -0 -0 -0 -0 -0 -0 -0 -0 -0 -0 -0 -0 -0 -0 -0 -0 -0 -0 -0 -0 -0 -0 -0 -0 -0 -0 -0 -0 -0 -0 -0 -0 -0 -0 -0 0
0 0 0 0 0 0 0 0 0 0 0 -0 0 -0 -0 -0 -0 -0 -0 -0 -0 -0 -0 -0 -0 -0 -0 -0 -0 -0 -0 -0 -0 -0 -0 -0 -0 -0 -0 -0 -0 -0 -0 -0 -0 -0 -0 0 0
0 0 0 0 0 0 0 0 0 0 0 0 0 0 -0 -0 -0 -0 -0 -0 0 -0 -0 -0 -0 -0 -0 -0 -0 -0 -0 -0 -0 -0 -0 -0 -0 -0 0 -0 -0 -0 -0 -0 0 0 0 0 0
0 0 0 0 0 0 0 0 0 0 0 0 0 0 0 -0 -0 -0 0 0 0 0 0 0 -0 0 0 0 -0 -0 -0 -0 -0 -0 0 0 0 -0 0 0 0 0 0 -0 0 0 0 0 0
0 0 0 0 0 0 0 0 0 0 0 0 0 0 0 -0 0 0 0 0 0 0 0 0 0 0 0 0 0 0 0 0 0 0 0 0 0 0 0 0 0 0 0 0 0 0 0 0 0
0 0 0 0 0 0 0 0 0 0 0 0 0 0 0 0 0 0 0 0 0 0 0 0 0 0 0 0 0 0 0 0 0 0 0 0 0 0 0 0 0 0 0 0 0 0 0 0 0
0 0 0 0 0 0 0 0 0 0 0 0 0 0 0 0 0 0 0 0 0 0 0 0 0 0 0 0 0 0 0 0 0 0 0 0 0 0 0 0 0 0 0 0 0 0 0 0 0
0 0 0 0 0 0 0 0 0 0 0 0 0 0 0 0 0 0 0 0 0 0 0 0 0 0 0 0 0 0 0 0 0 0 0 0 0 0 0 0 0 0 0 0 0 0 0 0 0
0 0 0 0 0 0 0 0 0 0 0 0 0 0 0 0 0 0 0 0 0 0 0 0 0 0 0 0 0 0 0 0 0 0 0 0 0 0 0 0 0 0 0 0 0 0 0 0 0
0 0 0 0 0 0 0 0 0 0 0 0 0 0 0 0 0 0 0 0 0 0 0 0 0 0 0 0 0 0 0 0 0 0 0 0 0 0 0 0 0 0 0 0 0 0 0 0 0
0 0 0 0 0 0 0 0 0 0 0 0 0 0 0 0 0 0 0 0 0 0 0 0 0 0 0 0 0 0 0 0 0 0 0 0 0 0 0 0 0 0 0 0 0 0 0 0 0
0 0 0 0 0 0 0 0 0 0 0 0 0 0 0 0 0 0 0 0 0 0 0 0 0 0 0 0 0 0 0 0 0 0 0 0 0 0 0 0 0 0 0 0 0 0 0 0 0
0 0 0 0 0 0 0 0 0 0 0 0 0 0 0 0 0 0 0 0 0 0 0 0 0 0 0 0 0 0 0 0 0 0 0 0 0 0 0 0 0 0 0 0 0 0 0 0 0
0 0 0 0 0 0 0 0 0 0 0 0 0 0 0 0 0 0 0 0 0 0 0 0 0 0 0 0 0 0 0 0 0 0 0 0 0 0 0 0 0 0 0 0 0 0 0 0 0
0 0 0 0 0 0 0 0 0 0 0 0 0 0 0 0 0 0 0 0 0 0 0 0 0 0 0 0 0 0 0 0 0 0 0 0 0 0 0 0 0 0 0 0 0 0 0 0 0
0 0 0 0 0 0 0 0 0 0 0 0 0 0 0 0 0 0 0 0 0 0 0 0 0 0 0 0 0 0 0 0 0 0 0 0 0 0 0 0 0 0 0 0 0 0 0 0 0
0 0 0 0 0 0 0 0 0 0 0 0 0 0 0 0 0 0 0 0 0 0 0 0 0 0 0 0 0 0 0 0 0 0 0 0 0 0 0 0 0 0 0 0 0 0 0 0 0
0 0 0 0 0 0 0 0 0 0 0 0 0 0 0 0 0 0 0 0 0 0 0 0 0 0 0 0 0 0 0 0 0 0 0 0 0 0 0 0 0 0 0 0 0 0 0 0 0
0 0 0 0 0 0 0 0 -0 -0 0 0 0 0 0 0 0 0 0 0 0 0 0 0 0 0 0 0 0 0 0 0 0 0 0 0 0 0 0 0 0 0 0 0 0 0 0 0 0
0 0 0 0 0 0 0 0 -0 0 0 0 0 0 0 0 0 0 0 0 0 0 0 0 0 0 0 0 0 0 0 0 0 0 0 0 0 0 0 0 0 0 0 0 0 0 0 0 0
0 0 0 0 0 0 0 0 0 0 0 0 0 0 0 0 0 0 0 0 0 0 0 0 0 0 0 0 0 0 0 0 0 0 0 0 0 0 0 0 0 0 0 0 0 0 0 0 0
0 0 0 0 0 0 0 0 0 0 0 0 0 0 0 0 0 0 0 0 0 0 0 0 0 0 0 0 0 0 0 0 0 0 0 0 0 0 0 0 0 0 0 0 0 0 0 0 0
0 0 0 0 0 0 0 0 0 0 0 0 0 0 0 0 0 0 0 0 0 0 0 0 0 0 0 0 0 0 0 0 0 0 0 0 0 0 0 0 0 0 0 0 0 0 0 0 0
0 0 0 0 0 0 0 0 0 0 0 0 0 0 0 0 0 0 -0 0 0 0 0 0 0 0 0 0 0 0 0 0 0 0 0 0 0 0 0 0 0 0 0 0 0 0 0 0 0
0 0 0 0 0 0 0 0 0 0 0 0 0 0 0 0 0 -0 0 0 0 0 0 0 0 0 0 0 0 0 0 0 0 0 0 0 0 0 0 0 0 0 0 0 0 0 0 0 0
0 0 0 0 0 0 0 0 0 0 0 0 0 0 0 0 -0 0 0 0 0 0 0 0 0 0 0 0 0 0 0 0 0 0 0 0 0 0 0 0 0 0 0 0 0 0 0 0 0
Wind_Speed_500mb
35 29 24 17 4 4 11 8 11 9 11 12 17 14 11 32 11 9 30 20 23 21 30 31 28 25 21 17 13 12 14 11 14 20 25 28 25 31 24 30 30 22 27 29 31 33 31 31 34
35 30 14 13 6 7 9 13 17 18 22 13 9 6 3 12 16 30 31 27 33 20 32 31 31 24 19 15 13 10 12 11 13 22 24 28 24 29 24 24 30 19 22 29 29 30 30 31 33
32 18 10 6 6 11 10 11 19 25 17 11 11 8 10 11 13 29 17 38 36 23 32 31 29 22 18 15 12 12 11 11 12 19 21 26 26 27 22 21 26 22 22 25 27 28 29 31 34
27 12 11 4 4 9 16 15 32 22 11 4 3 19 14 22 18 20 35 38 39 30 29 33 27 23 20 17 12 11 11 10 11 15 18 21 25 28 21 15 21 20 21 21 25 26 28 30 33
24 13 7 6 9 11 14 14 28 13 19 19 9 11 14 11 23 22 41 37 39 30 30 33 29 24 21 17 13 9 9 9 11 10 14 17 22 26 21 18 16 17 16 19 22 23 25 27 30
14 7 9 8 11 14 10 9 12 15 15 13 10 9 12 10 23 32 40 36 34 25 28 35 31 26 23 20 13 10 7 7 12 14 12 11 16 22 21 19 12 15 17 18 21 22 23 24 25
14 8 15 17 6 7 9 7 13 16 16 14 2 3 17 19 25 32 36 34 34 28 27 36 33 31 27 24 19 13 10 9 10 16 13 11 12 17 22 25 19 18 21 20 20 19 20 21 22
9 6 14 9 11 5 12 12 3 5 9 16 5 5 14 28 30 39 36 35 35 35 29 32 40 35 34 31 25 19 16 18 15 16 17 13 13 14 17 19 20 20 21 20 20 17 17 17 18
6 6 9 15 8 3 24 10 5 6 5 7 7 8 18 22 29 42 42 35 37 35 37 30 35 37 35 34 29 26 23 24 27 19 22 19 17 16 19 20 20 20 21 19 18 17 15 15 15
13 8 14 13 21 12 12 10 21 4 13 13 15 11 19 17 28 37 45 44 44 41 41 41 35 39 39 32 35 34 29 29 30 26 23 22 21 22 24 22 22 24 24 22 20 18 16 15 13
12 9 18 9 10 16 22 1 1 6 11 2 27 31 27 22 24 29 34 36 36 41 40 44 44 41 44 42 37 35 37 36 35 31 26 28 25 27 28 26 27 27 28 26 24 22 19 16 13
13 29 22 24 8 7 9 18 2 16 17 7 9 18 19 25 27 32 35 40 35 37 44 44 46 45 43 41 43 37 39 37 37 35 32 36 38 36 32 29 30 31 31 30 28 26 24 21 23
18 18 31 21 2 9 17 17 20 30 24 23 12 11 20 20 26 27 30 29 38 42 38 49 51 52 51 48 48 44 43 39 39 38 37 40 41 38 37 34 34 35 34 35 32 31 30 25 25
16 20 32 26 21 13 23 29 28 31 24 39 35 27 22 27 29 31 35 39 42 48 48 41 52 56 55 55 53 49 48 46 46 46 42 41 41 43 42 41 40 38 38 40 35 34 31 30 29
12 14 17 22 16 13 16 21 22 56 42 39 32 27 31 37 37 37 38 41 46 49 52 52 47 52 58 58 57 57 54 53 52 52 49 46 46 48 47 47 47 43 42 41 39 38 37 35 34
5 9 6 11 30 17 20 18 19 42 51 58 57 52 46 41 42 41 40 44 43 48 52 52 53 53 56 60 61 63 60 59 58 56 56 54 52 54 53 54 52 49 48 47 46 44 43 40 37
12 10 19 16 15 17 19 8 20 37 48 46 32 32 36 37 43 48 41 46 51 50 50 52 56 59 57 57 61 66 66 67 64 63 63 60 59 60 61 61 55 54 56 56 54 51 48 45 42
10 19 14 16 5 6 15 17 19 49 51 34 25 29 31 36 41 41 44 47 51 54 57 55 57 61 62 60 64 68 70 72 72 72 72 68 67 64 67 66 62 61 63 63 60 58 54 51 45
14 8 14 12 16 11 14 18 21 37 47 43 50 55 56 54 53 50 45 44 45 51 51 56 59 61 66 68 71 75 79 78 79 79 79 76 74 71 72 73 70 69 71 70 65 62 61 57 50
20 18 18 18 20 8 17 31 28 35 47 58 61 61 62 60 61 58 54 52 50 50 49 55 59 61 67 71 73 75 77 81 81 82 84 83 81 78 80 79 79 78 77 75 73 71 68 66 58
23 23 18 16 16 17 20 32 34 37 61 75 78 68 63 60 54 51 51 51 52 51 56 57 57 60 65 70 70 71 72 74 79 89 90 91 90 88 89 88 86 86 85 84 81 80 78 75 69
20 13 21 16 10 7 9 12 14 26 24 19 45 54 63 63 65 60 53 48 41 37 30 37 44 57 58 65 73 79 82 84 87 90 93 94 93 95 97 97 94 93 94 93 91 85 85 80 81
11 14 7 1 9 14 10 12 12 23 17 20 30 46 39 30 28 23 19 18 20 22 28 36 46 49 54 60 69 78 84 87 84 85 89 92 94 95 98 102 103 103 101 102 101 95 94 93 89
2 10 10 5 4 11 21 17 10 13 17 16 21 18 19 11 11 12 11 9 15 17 21 24 26 30 38 48 62 73 84 88 88 88 88 89 95 100 101 102 107 110 109 109 110 105 102 101 98
11 14 2 3 4 17 9 20 20 23 16 8 16 13 21 14 8 7 12 15 15 16 21 38 39 39 33 35 49 63 73 84 92 92 89 90 93 100 107 107 108 111 113 115 117 116 113 110 109
31 25 9 14 8 7 13 14 11 16 16 6 16 20 4 5 7 5 10 13 26 42 40 40 42 47 48 49 47 50 53 73 85 92 94 94 93 98 102 108 111 114 110 113 119 124 122 117 117
21 32 15 9 2 3 10 9 11 13 8 15 19 15 10 5 9 5 23 38 38 40 46 50 46 51 52 51 57 60 66 70 77 84 89 92 96 98 95 103 111 114 116 115 118 125 129 125 123
12 13 12 12 7 10 11 14 14 1 16 16 14 16 13 3 16 24 34 39 40 43 52 55 56 57 59 59 64 67 72 69 69 71 85 93 99 100 98 102 108 117 120 120 120 124 125 128 128
20 20 13 14 14 8 4 9 2 14 16 20 11 4 7 15 28 43 37 35 40 49 54 57 57 60 63 66 71 77 74 74 73 78 81 81 90 101 108 105 110 116 123 125 123 125 124 127 130
31 29 27 9 10 13 14 20 11 19 14 15 13 3 21 37 52 38 33 56 47 47 50 56 61 64 65 67 73 78 82 88 87 85 85 86 89 93 107 113 111 113 122 124 125 126 126 124 122
Wind_Direction_500mb
343 343 333 304 284 194 115 94 121 119 110 73 73 33 55 50 15 100 142 151 169 158 147 145 139 136 142 137 122 104 91 85 91 109 112 103 107 100 94 93 89 89 94 96 96 97 97 95 96
339 350 335 276 245 139 90 138 95 76 88 89 98 239 162 93 80 136 160 154 141 165 155 151 147 143 146 138 124 106 99 99 105 115 117 112 108 105 101 96 107 86 96 99 96 98 98 96 97
345 321 291 291 285 31 109 97 104 105 122 155 140 44 19 87 112 134 180 154 148 170 162 154 152 148 143 141 140 118 100 99 107 116 120 123 114 106 108 97 116 102 103 100 102 99 98 97 99
333 340 252 268 324 62 96 94 117 122 120 137 71 101 100 110 133 186 154 155 147 183 167 159 159 155 157 154 146 132 109 103 124 132 125 126 119 114 119 109 118 117 104 105 107 106 103 102 102
334 271 278 257 54 91 63 82 141 164 157 160 210 135 104 148 159 177 148 155 155 186 172 165 167 162 166 164 157 144 129 132 131 140 133 132 134 129 126 129 132 127 118 120 114 114 111 108 106
309 240 279 252 124 96 90 122 176 154 135 110 174 144 108 176 166 160 155 157 165 188 170 171 176 173 174 175 175 166 152 163 163 148 138 138 147 139 138 141 144 146 138 132 127 125 120 116 111
269 297 279 310 352 117 119 143 209 175 153 167 66 59 137 149 170 162 155 165 162 192 181 178 183 182 184 187 189 185 177 179 182 166 162 166 166 165 160 157 159 156 148 140 138 135 130 126 118
296 290 280 274 277 175 109 144 271 275 100 122 116 19 157 171 185 162 161 173 172 189 186 191 190 193 193 195 198 198 195 194 204 187 178 189 187 183 184 175 169 163 156 151 151 148 145 138 130
276 270 256 263 234 291 133 164 187 231 104 109 95 71 138 180 165 163 167 181 179 196 184 206 199 195 196 201 207 208 208 209 226 216 190 194 200 193 193 186 180 171 170 170 169 160 161 154 148
226 227 252 36 2 19 125 230 155 183 191 187 161 164 177 179 168 178 178 189 188 201 193 194 212 198 194 206 211 212 217 220 230 227 201 195 208 204 202 197 193 182 183 188 182 178 175 170 168
216 240 281 338 22 3 325 49 3 266 277 255 198 193 186 191 184 191 194 209 211 206 205 201 213 215 201 203 215 217 220 224 230 234 215 198 212 218 215 203 204 195 194 197 195 193 191 193 190
260 266 270 289 60 357 308 312 302 241 274 56 87 146 195 202 208 202 208 203 225 230 213 213 214 219 221 214 228 225 226 222 229 227 232 201 215 222 223 216 212 209 204 206 205 203 204 209 202
245 272 291 251 275 282 300 283 278 285 270 272 270 215 201 224 219 229 225 224 208 232 239 221 218 219 223 222 225 227 226 228 227 234 231 220 219 224 221 221 217 216 212 216 214 211 216 218 218
13 316 274 263 226 248 261 268 274 250 264 259 253 247 239 220 229 226 225 223 223 222 238 237 228 225 226 228 229 228 227 230 229 231 235 233 227 226 223 226 224 219 218 220 222 221 223 225 228
313 298 289 267 260 215 278 263 232 254 258 272 268 256 249 239 238 231 235 229 230 229 231 240 238 231 232 234 231 232 233 233 233 233 235 234 230 230 229 228 226 224 224 222 223 223 227 228 230
243 240 286 214 214 225 209 263 263 265 242 245 250 255 252 243 244 234 230 232 240 233 234 232 238 239 236 236 236 233 236 236 239 237 236 237 232 233 233 231 229 226 226 226 228 226 229 231 233
212 239 219 267 225 193 183 247 276 287 260 267 260 256 248 254 251 249 232 236 235 241 238 238 237 241 242 238 239 238 238 238 240 241 240 239 237 234 235 236 234 229 228 229 231 231 233 234 234
206 219 248 266 195 217 262 258 259 283 294 292 279 277 274 256 254 245 239 237 240 241 245 245 242 241 243 242 237 239 239 241 242 242 243 243 241 238 237 237 237 234 231 231 230 232 234 237 237
313 323 314 294 252 198 239 266 268 276 281 269 256 253 249 250 247 245 244 242 243 239 242 245 246 244 242 241 238 235 238 240 242 243 244 244 242 242 239 239 238 236 236 237 235 234 234 233 231
260 270 262 276 288 306 279 270 261 256 259 266 260 253 247 246 248 251 252 252 249 248 242 243 244 244 246 252 250 247 245 244 248 249 246 245 245 245 244 242 240 238 238 237 236 235 233 235 228
229 236 249 256 301 306 300 289 258 255 247 247 253 256 258 256 255 254 256 258 255 251 252 248 246 246 243 254 256 254 251 248 246 249 249 246 247 247 247 245 243 241 241 241 238 237 236 233 233
242 211 250 275 313 247 118 285 298 301 288 246 244 242 250 256 255 256 260 259 255 246 240 248 253 250 245 245 247 251 253 252 255 255 254 253 250 249 249 248 246 243 242 243 241 239 239 237 234
223 310 346 231 289 304 263 276 249 229 247 246 235 230 236 246 246 238 240 242 255 263 265 265 256 252 251 248 247 247 249 257 262 260 257 256 256 253 251 251 250 246 242 245 245 241 238 239 238
83 124 67 7 280 266 212 212 217 211 218 215 231 256 224 212 205 206 209 261 281 290 289 287 273 266 259 250 248 249 249 253 254 258 253 254 256 257 254 253 253 250 247 245 246 245 242 242 240
187 152 148 324 206 235 199 207 240 287 300 69 129 124 114 132 193 244 284 294 293 289 294 309 306 281 288 280 254 253 255 254 255 258 259 251 250 251 255 256 252 252 252 249 247 245 244 243 242
203 183 170 202 204 276 214 235 253 207 222 194 183 154 170 255 269 215 269 285 314 314 309 311 303 290 289 286 281 272 267 259 261 260 259 255 248 251 253 255 256 256 256 253 248 246 246 245 244
188 219 226 346 153 12 239 253 269 190 178 112 116 127 206 200 120 284 309 313 309 309 306 306 304 295 292 282 281 279 281 274 263 262 265 265 259 251 251 252 253 254 253 252 249 245 245 243 244
186 151 188 217 218 245 244 244 234 246 164 177 193 197 129 358 311 307 319 315 312 312 311 310 306 299 299 291 285 282 275 274 272 267 259 260 263 260 250 249 253 252 251 252 247 245 243 243 243
199 222 226 179 214 208 279 245 208 184 171 130 106 47 349 322 322 316 315 317 318 312 308 310 307 302 299 295 292 290 284 280 275 270 270 267 265 261 258 251 248 250 251 248 247 245 240 239 241
220 223 208 197 202 238 275 239 66 111 68 91 100 46 307 309 309 307 321 320 320 320 317 312 311 304 301 298 293 286 281 280 282 277 273 273 270 269 260 255 247 247 249 247 242 243 240 235 233
Wind_Speed_850mb
35 29 24 17 4 4 11 8 11 9 11 12 17 14 11 32 11 9 30 20 23 21 30 31 28 25 21 17 13 12 14 11 14 20 25 28 25 31 24 30 30 22 27 29 31 33 31 31 34
35 30 14 13 6 7 9 13 17 18 22 13 9 6 3 12 16 30 31 27 33 20 32 31 31 24 19 15 13 10 12 11 13 22 24 28 24 29 24 24 30 19 22 29 29 30 30 31 33
32 18 10 6 6 11 10 11 19 25 17 11 11 8 10 11 13 29 17 38 36 23 32 31 29 22 18 15 12 12 11 11 12 19 21 26 26 27 22 21 26 22 22 25 27 28 29 31 34
27 12 11 4 4 9 16 15 32 22 11 4 3 19 14 22 18 20 35 38 39 30 29 33 27 23 20 17 12 11 11 10 11 15 18 21 25 28 21 15 21 20 21 21 25 26 28 30 33
24 13 7 6 9 11 14 14 28 13 19 19 9 11 14 11 23 22 41 37 39 30 30 33 29 24 21 17 13 9 9 9 11 10 14 17 22 26 21 18 16 17 16 19 22 23 25 27 30
14 7 9 8 11 14 10 9 12 15 15 13 10 9 12 10 23 32 40 36 34 25 28 35 31 26 23 20 13 10 7 7 12 14 12 11 16 22 21 19 12 15 17 18 21 22 23 24 25
14 8 15 17 6 7 9 7 13 16 16 14 2 3 17 19 25 32 36 34 34 28 27 36 33 31 27 24 19 13 10 9 10 16 13 11 12 17 22 25 19 18 21 20 20 19 20 21 22
9 6 14 9 11 5 12 12 3 5 9 16 5 5 14 28 30 39 36 35 35 35 29 32 40 35 34 31 25 19 16 18 15 16 17 13 13 14 17 19 20 20 21 20 20 17 17 17 18
6 6 9 15 8 3 24 10 5 6 5 7 7 8 18 22 29 42 42 35 37 35 37 30 35 37 35 34 29 26 23 24 27 19 22 19 17 16 19 20 20 20 21 19 18 17 15 15 15
13 8 14 13 21 12 12 10 21 4 13 13 15 11 19 17 28 37 45 44 44 41 41 41 35 39 39 32 35 34 29 29 30 26 23 22 21 22 24 22 22 24 24 22 20 18 16 15 13
12 9 18 9 10 16 22 1 1 6 11 2 27 31 27 22 24 29 34 36 36 41 40 44 44 41 44 42 37 35 37 36 35 31 26 28 25 27 28 26 27 27 28 26 24 22 19 16 13
13 29 22 24 8 7 9 18 2 16 17 7 9 18 19 25 27 32 35 40 35 37 44 44 46 45 43 41 43 37 39 37 37 35 32 36 38 36 32 29 30 31 31 30 28 26 24 21 23
18 18 31 21 2 9 17 17 20 30 24 23 12 11 20 20 26 27 30 29 38 42 38 49 51 52 51 48 48 44 43 39 39 38 37 40 41 38 37 34 34 35 34 35 32 31 30 25 25
16 20 32 26 21 13 23 29 28 31 24 39 35 27 22 27 29 31 35 39 42 48 48 41 52 56 55 55 53 49 48 46 46 46 42 41 41 43 42 41 40 38 38 40 35 34 31 30 29
12 14 17 22 16 13 16 21 22 56 42 39 32 27 31 37 37 37 38 41 46 49 52 52 47 52 58 58 57 57 54 53 52 52 49 46 46 48 47 47 47 43 42 41 39 38 37 35 34
5 9 6 11 30 17 20 18 19 42 51 58 57 52 46 41 42 41 40 44 43 48 52 52 53 53 56 60 61 63 60 59 58 56 56 54 52 54 53 54 52 49 48 47 46 44 43 40 37
12 10 19 16 15 17 19 8 20 37 48 46 32 32 36 37 43 48 41 46 51 50 50 52 56 59 57 57 61 66 66 67 64 63 63 60 59 60 61 61 55 54 56 56 54 51 48 45 42
10 19 14 16 5 6 15 17 19 49 51 34 25 29 31 36 41 41 44 47 51 54 57 55 57 61 62 60 64 68 70 72 72 72 72 68 67 64 67 66 62 61 63 63 60 58 54 51 45
14 8 14 12 16 11 14 18 21 37 47 43 50 55 56 54 53 50 45 44 45 51 51 56 59 61 66 68 71 75 79 78 79 79 79 76 74 71 72 73 70 69 71 70 65 62 61 57 50
20 18 18 18 20 8 17 31 28 35 47 58 61 61 62 60 61 58 54 52 50 50 49 55 59 61 67 71 73 75 77 81 81 82 84 83 81 78 80 79 79 78 77 75 73 71 68 66 58
23 23 18 16 16 17 20 32 34 37 61 75 78 68 63 60 54 51 51 51 52 51 56 57 57 60 65 70 70 71 72 74 79 89 90 91 90 88 89 88 86 86 85 84 81 80 78 75 69
20 13 21 16 10 7 9 12 14 26 24 19 45 54 63 63 65 60 53 48 41 37 30 37 44 57 58 65 73 79 82 84 87 90 93 94 93 95 97 97 94 93 94 93 91 85 85 80 81
11 14 7 1 9 14 10 12 12 23 17 20 30 46 39 30 28 23 19 18 20 22 28 36 46 49 54 60 69 78 84 87 84 85 89 92 94 95 98 102 103 103 101 102 101 95 94 93 89
2 10 10 5 4 11 21 17 10 13 17 16 21 18 19 11 11 12 11 9 15 17 21 24 26 30 38 48 62 73 84 88 88 88 88 89 95 100 101 102 107 110 109 109 110 105 102 101 98
11 14 2 3 4 17 9 20 20 23 16 8 16 13 21 14 8 7 12 15 15 16 21 38 39 39 33 35 49 63 73 84 92 92 89 90 93 100 107 107 108 111 113 115 117 116 113 110 109
31 25 9 14 8 7 13 14 11 16 16 6 16 20 4 5 7 5 10 13 26 42 40 40 42 47 48 49 47 50 53 73 85 92 94 94 93 98 102 108 111 114 110 113 119 124 122 117 117
21 32 15 9 2 3 10 9 11 13 8 15 19 15 10 5 9 5 23 38 38 40 46 50 46 51 52 51 57 60 66 70 77 84 89 92 96 98 95 103 111 114 116 115 118 125 129 125 123
12 13 12 12 7 10 11 14 14 1 16 16 14 16 13 3 16 24 34 39 40 43 52 55 56 57 59 59 64 67 72 69 69 71 85 93 99 100 98 102 108 117 120 120 120 124 125 128 128
20 20 13 14 14 8 4 9 2 14 16 20 11 4 7 15 28 43 37 35 40 49 54 57 57 60 63 66 71 77 74 74 73 78 81 81 90 101 108 105 110 116 123 125 123 125 124 127 130
31 29 27 9 10 13 14 20 11 19 14 15 13 3 21 37 52 38 33 56 47 47 50 56 61 64 65 67 73 78 82 88 87 85 85 86 89 93 107 113 111 113 122 124 125 126 126 124 122
Wind_Direction_850mb
343 343 333 304 284 194 115 94 121 119 110 73 73 33 55 50 15 100 142 151 169 158 147 145 139 136 142 137 122 104 91 85 91 109 112 103 107 100 94 93 89 89 94 96 96 97 97 95 96
339 350 335 276 245 139 90 138 95 76 88 89 98 239 162 93 80 136 160 154 141 165 155 151 147 143 146 138 124 106 99 99 105 115 117 112 108 105 101 96 107 86 96 99 96 98 98 96 97
345 321 291 291 285 31 109 97 104 105 122 155 140 44 19 87 112 134 180 154 148 170 162 154 152 148 143 141 140 118 100 99 107 116 120 123 114 106 108 97 116 102 103 100 102 99 98 97 99
333 340 252 268 324 62 96 94 117 122 120 137 71 101 100 110 133 186 154 155 147 183 167 159 159 155 157 154 146 132 109 103 124 132 125 126 119 114 119 109 118 117 104 105 107 106 103 102 102
334 271 278 257 54 91 63 82 141 164 157 160 210 135 104 148 159 177 148 155 155 186 172 165 167 162 166 164 157 144 129 132 131 140 133 132 134 129 126 129 132 127 118 120 114 114 111 108 106
309 240 279 252 124 96 90 122 176 154 135 110 174 144 108 176 166 160 155 157 165 188 170 171 176 173 174 175 175 166 152 163 163 148 138 138 147 139 138 141 144 146 138 132 127 125 120 116 111
269 297 279 310 352 117 119 143 209 175 153 167 66 59 137 149 170 162 155 165 162 192 181 178 183 182 184 187 189 185 177 179 182 166 162 166 166 165 160 157 159 156 148 140 138 135 130 126 118
296 290 280 274 277 175 109 144 271 275 100 122 116 19 157 171 185 162 161 173 172 189 186 191 190 193 193 195 198 198 195 194 204 187 178 189 187 183 184 175 169 163 156 151 151 148 145 138 130
276 270 256 263 234 291 133 164 187 231 104 109 95 71 138 180 165 163 167 181 179 196 184 206 199 195 196 201 207 208 208 209 226 216 190 194 200 193 193 186 180 171 170 170 169 160 161 154 148
226 227 252 36 2 19 125 230 155 183 191 187 161 164 177 179 168 178 178 189 188 201 193 194 212 198 194 206 211 212 217 220 230 227 201 195 208 204 202 197 193 182 183 188 182 178 175 170 168
216 240 281 338 22 3 325 49 3 266 277 255 198 193 186 191 184 191 194 209 211 206 205 201 213 215 201 203 215 217 220 224 230 234 215 198 212 218 215 203 204 195 194 197 195 193 191 193 190
260 266 270 289 60 357 308 312 302 241 274 56 87 146 195 202 208 202 208 203 225 230 213 213 214 219 221 214 228 225 226 222 229 227 232 201 215 222 223 216 212 209 204 206 205 203 204 209 202
245 272 291 251 275 282 300 283 278 285 270 272 270 215 201 224 219 229 225 224 208 232 239 221 218 219 223 222 225 227 226 228 227 234 231 220 219 224 221 221 217 216 212 216 214 211 216 218 218
13 316 274 263 226 248 261 268 274 250 264 259 253 247 239 220 229 226 225 223 223 222 238 237 228 225 226 228 229 228 227 230 229 231 235 233 227 226 223 226 224 219 218 220 222 221 223 225 228
313 298 289 267 260 215 278 263 232 254 258 272 268 256 249 239 238 231 235 229 230 229 231 240 238 231 232 234 231 232 233 233 233 233 235 234 230 230 229 228 226 224 224 222 223 223 227 228 230
243 240 286 214 214 225 209 263 263 265 242 245 250 255 252 243 244 234 230 232 240 233 234 232 238 239 236 236 236 233 236 236 239 237 236 237 232 233 233 231 229 226 226 226 228 226 229 231 233
212 239 219 267 225 193 183 247 276 287 260 267 260 256 248 254 251 249 232 236 235 241 238 238 237 241 242 238 239 238 238 238 240 241 240 239 237 234 235 236 234 229 228 229 231 231 233 234 234
206 219 248 266 195 217 262 258 259 283 294 292 279 277 274 256 254 245 239 237 240 241 245 245 242 241 243 242 237 239 239 241 242 242 243 243 241 238 237 237 237 234 231 231 230 232 234 237 237
313 323 314 294 252 198 239 266 268 276 281 269 256 253 249 250 247 245 244 242 243 239 242 245 246 244 242 241 238 235 238 240 242 243 244 244 242 242 239 239 238 236 236 237 235 234 234 233 231
260 270 262 276 288 306 279 270 261 256 259 266 260 253 247 246 248 251 252 252 249 248 242 243 244 244 246 252 250 247 245 244 248 249 246 245 245 245 244 242 240 238 238 237 236 235 233 235 228
229 236 249 256 301 306 300 289 258 255 247 247 253 256 258 256 255 254 256 258 255 251 252 248 246 246 243 254 256 254 251 248 246 249 249 246 247 247 247 245 243 241 241 241 238 237 236 233 233
242 211 250 275 313 247 118 285 298 301 288 246 244 242 250 256 255 256 260 259 255 246 240 248 253 250 245 245 247 251 253 252 255 255 254 253 250 249 249 248 246 243 242 243 241 239 239 237 234
223 310 346 231 289 304 263 276 249 229 247 246 235 230 236 246 246 238 240 242 255 263 265 265 256 252 251 248 247 247 249 257 262 260 257 256 256 253 251 251 250 246 242 245 245 241 238 239 238
83 124 67 7 280 266 212 212 217 211 218 215 231 256 224 212 205 206 209 261 281 290 289 287 273 266 259 250 248 249 249 253 254 258 253 254 256 257 254 253 253 250 247 245 246 245 242 242 240
187 152 148 324 206 235 199 207 240 287 300 69 129 124 114 132 193 244 284 294 293 289 294 309 306 281 288 280 254 253 255 254 255 258 259 251 250 251 255 256 252 252 252 249 247 245 244 243 242
203 183 170 202 204 276 214 235 253 207 222 194 183 154 170 255 269 215 269 285 314 314 309 311 303 290 289 286 281 272 267 259 261 260 259 255 248 251 253 255 256 256 256 253 248 246 246 245 244
188 219 226 346 153 12 239 253 269 190 178 112 116 127 206 200 120 284 309 313 309 309 306 306 304 295 292 282 281 279 281 274 263 262 265 265 259 251 251 252 253 254 253 252 249 245 245 243 244
186 151 188 217 218 245 244 244 234 246 164 177 193 197 129 358 311 307 319 315 312 312 311 310 306 299 299 291 285 282 275 274 272 267 259 260 263 260 250 249 253 252 251 252 247 245 243 243 243
199 222 226 179 214 208 279 245 208 184 171 130 106 47 349 322 322 316 315 317 318 312 308 310 307 302 299 295 292 290 284 280 275 270 270 267 265 261 258 251 248 250 251 248 247 245 240 239 241
220 223 208 197 202 238 275 239 66 111 68 91 100 46 307 309 309 307 321 320 320 320 317 312 311 304 301 298 293 286 281 280 282 277 273 273 270 269 260 255 247 247 249 247 242 243 240 235 233